This demonstration page uses our WeatherBlox Daily Observations layout. Learn more.

Left ArrowRight Arrow

39.92423, -83.80882

Hourly Observations for May 11, 2018

Temp ( °F °C ) Dew Point ( °F °C ) Humidity (%) Winds ( mph kmh ) Pressure ( in mb ) Visibility ( mi km ) Precip ( " mm )
12:56 am 00:56 Clear 60 15.6 52 11.1 75 75 ENE 6 9 30 1016 10 16.0934 0 0
1:56 am 01:56 Mostly Clear 58 14.4 52 11.1 81 81 ENE 6 9 30 1016 10 16.0934 0 0
2:56 am 02:56 Mostly Cloudy 58 14.4 53 11.7 84 84 E 3 6 30 1016 10 16.0934 0 0
3:56 am 03:56 Mostly Cloudy 58 14.4 53 11.7 84 84 NE 3 6 30.01 1016 10 16.0934 0 0
4:56 am 04:56 Cloudy 58 14.4 53 11.7 84 84 ENE 3 6 30.01 1016 10 16.0934 0 0
5:56 am 05:56 Clear 54 12.2 52 11.1 93 93 ENE 5 7 30.02 1017 10 16.0934 0 0
6:56 am 06:56 Cloudy 56 13.3 53 11.7 90 90 E 9 15 30.04 1017 10 16.0934 0 0
7:56 am 07:56 Mostly Sunny 58 14.4 53 11.7 84 84 E 13 20 30.04 1017 10 16.0934 0 0
8:56 am 08:56 Mostly Cloudy 61 16.1 54 12.2 78 78 ENE 14 22 30.06 1018 10 16.0934 0 0
9:56 am 09:56 Sunny 64 17.8 54 12.2 70 70 E 12 19 30.04 1017 10 16.0934 0 0
10:56 am 10:56 Sunny 68 20 55 12.8 63 63 E 12 19 30.04 1017 10 16.0934 0 0
11:56 am 11:56 Sunny 72 22.2 56 13.3 57 57 ESE 10 17 30.04 1017 10 16.0934 0 0
12:56 pm 12:56 Sunny 75 23.9 58 14.4 55 55 S 7 11 30.02 1017 10 16.0934 0 0
1:56 pm 13:56 Sunny 79 26.1 60 15.6 52 52 Calm 29.99 1016 10 16.0934 0 0
2:56 pm 14:56 Partly Cloudy 81 27.2 59 15 47 47 SSW 10 17 29.96 1015 10 16.0934 0 0
3:56 pm 15:56 Mostly Cloudy 83 28.3 59 15 44 44 WSW 12 19 29.95 1014 10 16.0934 0 0
4:56 pm 16:56 Mostly Cloudy 83 28.3 59 15 44 44 SW 9 15 29.91 1013 10 16.0934 0 0
5:56 pm 17:56 Mostly Cloudy 85 29.4 57 13.9 39 39 SW 16 26 29.91 1013 10 16.0934 0 0
6:56 pm 18:56 Sunny 83 28.3 57 13.9 41 41 WSW 13 20 29.91 1013 10 16.0934 0 0
7:56 pm 19:56 Sunny 80 26.7 58 14.4 47 47 SW 6 9 29.92 1013 10 16.0934 0 0
8:56 pm 20:56 Clear 77 25 58 14.4 52 52 SSW 5 7 29.93 1013 10 16.0934 0 0
9:56 pm 21:56 Clear 75 23.9 59 15 58 58 SSW 3 6 29.95 1014 10 16.0934 0 0
10:56 pm 22:56 Clear 74 23.3 60 15.6 62 62 SSW 5 7 29.97 1015 10 16.0934 0 0
11:56 pm 23:56 Clear 67 19.4 59 15 76 76 ENE 7 11 29.98 1015 10 16.0934 0 0

Powered by AerisWeather